GW5874 Weather Reports


Display with metric or nautical units.
time (UTC)temp
F
wind
direction
speed
MPH
gust
MPH
rain 1hr
in
rain 24hr
in
rain mn
in
humidity
%
barometer
mb
20260831022220 76 265 0.0 0.0 0.00 0.00 0.00 68 1014.1
20260831021720 77 254 0.0 0.0 0.00 0.00 0.00 67 1014.2
20260831021214 77 263 0.0 0.0 0.00 0.00 0.00 66 1014.1
20260831020711 77 221 0.0 0.0 0.00 0.00 0.00 66 1014.1
20260831020210 78 275 0.0 0.0 0.00 0.00 0.00 65 1014.0
20260831015706 78 272 0.0 0.0 0.00 0.00 0.00 63 1014.0
20260831015206 79 228 0.0 0.0 0.00 0.00 0.00 63 1013.7
20260831014701 79 299 0.0 0.0 0.00 0.00 0.00 62 1013.8
20260831014156 80 259 0.0 0.0 0.00 0.00 0.00 61 1013.7
20260831013652 80 283 0.0 0.0 0.00 0.00 0.00 60 1013.6
20260831013152 81 269 0.0 0.0 0.00 0.00 0.00 59 1013.5
20260831012647 82 301 0.0 0.0 0.00 0.00 0.00 56 1013.6
20260831012142 83 264 0.0 0.0 0.00 0.00 0.00 55 1013.6
20260831011641 84 283 0.0 0.0 0.00 0.00 0.00 53 1013.6
20260831011137 86 242 0.0 0.0 0.00 0.00 0.00 52 1013.4
20260831010633 87 238 0.0 0.0 0.00 0.00 0.00 48 1013.5
20260831010128 87 193 0.0 0.0 0.00 0.00 0.00 46 1013.3
20260831005628 87 222 0.0 1.0 0.00 0.00 0.00 45 1013.3
20260831005124 87 202 1.0 1.0 0.00 0.00 0.00 45 1013.3
20260831004619 87 239 1.0 1.0 0.00 0.00 0.00 49 1013.4
20260831004115 88 170 0.0 1.0 0.00 0.00 0.00 46 1013.5
20260831003611 87 197 0.0 1.0 0.00 0.00 0.00 49 1013.7
20260831003107 89 219 0.0 0.0 0.00 0.00 0.00 47 1013.5
20260831002605 91 228 0.0 0.0 0.00 0.00 0.00 43 1013.5
20260831002100 92 213 0.0 1.0 0.00 0.00 0.00 40 1013.4
20260831001555 93 228 0.0 1.0 0.00 0.00 0.00 38 1013.7
20260831001052 93 126 3.0 4.0 0.00 0.00 0.00 37 1013.5
20260831000548 93 213 4.0 5.0 0.00 0.00 0.00 37 1013.4
20260831000047 94 200 1.0 3.0 0.00 0.00 0.00 38 1013.5
20260830235546 95 246 0.0 1.0 0.00 0.00 0.00 37 1013.6
20260830235042 96 212 2.0 3.0 0.00 0.00 0.00 35 1013.5
20260830234542 96 206 5.0 7.0 0.00 0.00 0.00 35 1013.7
20260830234038 96 213 2.0 3.0 0.00 0.00 0.00 35 1013.7
20260830233533 96 169 3.0 4.0 0.00 0.00 0.00 34 1013.5
20260830233029 96 213 3.0 4.0 0.00 0.00 0.00 35 1013.6
20260830232525 96 316 4.0 7.0 0.00 0.00 0.00 33 1013.6
20260830232021 97 182 5.0 7.0 0.00 0.00 0.00 32 1013.7
20260830231516 97 199 6.0 8.0 0.00 0.00 0.00 32 1013.7
20260830231015 97 186 8.0 10.0 0.00 0.00 0.00 31 1013.7
20260830230511 97 216 4.0 4.0 0.00 0.00 0.00 33 1013.5
20260830230011 97 208 6.0 8.0 0.00 0.00 0.00 32 1013.5
20260830225506 98 211 3.0 5.0 0.00 0.00 0.00 32 1013.7
20260830225006 98 180 4.0 5.0 0.00 0.00 0.00 31 1013.6
20260830224504 98 183 6.0 7.0 0.00 0.00 0.00 32 1013.7
20260830224001 98 227 4.0 5.0 0.00 0.00 0.00 32 1013.7
20260830223458 98 172 2.0 3.0 0.00 0.00 0.00 32 1013.7
20260830222957 100 249 2.0 4.0 0.00 0.00 0.00 30 1013.6
20260830222452 99 267 1.0 1.0 0.00 0.00 0.00 31 1013.7
20260830221947 98 228 4.0 7.0 0.00 0.00 0.00 31 1013.7
20260830221444 98 187 9.0 12.0 0.00 0.00 0.00 31 1013.7
20260830220939 98 191 3.0 3.0 0.00 0.00 0.00 32 1013.6
20260830220439 98 207 7.0 11.0 0.00 0.00 0.00 31 1013.7
20260830215936 99 272 0.0 1.0 0.00 0.00 0.00 30 1013.8
20260830215432 98 15 3.0 4.0 0.00 0.00 0.00 31 1013.5
20260830214926 98 204 5.0 5.0 0.00 0.00 0.00 31 1013.8
20260830214422 99 234 4.0 4.0 0.00 0.00 0.00 31 1013.7
20260830213922 98 113 3.0 4.0 0.00 0.00 0.00 31 1013.8
20260830213418 98 172 4.0 5.0 0.00 0.00 0.00 31 1014.0
20260830212913 98 227 7.0 10.0 0.00 0.00 0.00 30 1013.9
20260830212409 100 156 5.0 8.0 0.00 0.00 0.00 29 1014.1
20260830211909 101 201 5.0 5.0 0.00 0.00 0.00 29 1013.9
20260830211408 101 251 4.0 5.0 0.00 0.00 0.00 29 1014.0
20260830210904 100 207 4.0 5.0 0.00 0.00 0.00 29 1014.0
20260830210403 101 205 5.0 5.0 0.00 0.00 0.00 28 1013.9
20260830205900 101 207 6.0 8.0 0.00 0.00 0.00 29 1013.9
20260830205400 101 206 6.0 7.0 0.00 0.00 0.00 28 1014.1
20260830204856 101 235 5.0 7.0 0.00 0.00 0.00 29 1014.1
20260830204354 100 282 4.0 5.0 0.00 0.00 0.00 29 1014.2
20260830203850 99 258 2.0 3.0 0.00 0.00 0.00 30 1014.1
20260830203346 101 199 9.0 11.0 0.00 0.00 0.00 30 1014.4
20260830202845 100 221 4.0 4.0 0.00 0.00 0.00 30 1014.1
20260830202341 102 171 6.0 8.0 0.00 0.00 0.00 28 1014.3
20260830201836 102 202 4.0 5.0 0.00 0.00 0.00 30 1014.4
20260830201330 102 108 4.0 4.0 0.00 0.00 0.00 29 1014.4
20260830200826 102 71 2.0 3.0 0.00 0.00 0.00 29 1014.3
20260830200325 101 258 0.0 1.0 0.00 0.00 0.00 30 1014.5
20260830195821 99 197 2.0 3.0 0.00 0.00 0.00 32 1014.6
20260830195321 100 149 5.0 5.0 0.00 0.00 0.00 32 1014.6
20260830194819 101 281 6.0 10.0 0.00 0.00 0.00 31 1014.7
20260830194318 103 221 5.0 5.0 0.00 0.00 0.00 30 1014.8
20260830193814 102 259 1.0 1.0 0.00 0.00 0.00 30 1014.9
20260830193313 100 263 3.0 4.0 0.00 0.00 0.00 30 1014.8
20260830192810 100 197 2.0 3.0 0.00 0.00 0.00 32 1014.8
20260830192309 100 172 5.0 7.0 0.00 0.00 0.00 31 1014.9
20260830191805 101 181 11.0 14.0 0.00 0.00 0.00 31 1014.9
20260830191304 100 229 4.0 4.0 0.00 0.00 0.00 31 1015.0
20260830190800 99 222 5.0 5.0 0.00 0.00 0.00 34 1015.0
20260830190255 98 296 4.0 4.0 0.00 0.00 0.00 34 1015.0
20260830185753 99 171 2.0 3.0 0.00 0.00 0.00 34 1015.1
20260830185249 99 260 4.0 7.0 0.00 0.00 0.00 33 1015.3
20260830184749 99 252 2.0 4.0 0.00 0.00 0.00 34 1015.5
20260830184248 99 196 6.0 10.0 0.00 0.00 0.00 33 1015.6
20260830183743 98 185 5.0 7.0 0.00 0.00 0.00 35 1015.5
20260830183238 98 195 8.0 11.0 0.00 0.00 0.00 34 1015.5
20260830182733 98 195 6.0 8.0 0.00 0.00 0.00 35 1015.4
20260830182229 98 223 6.0 8.0 0.00 0.00 0.00 35 1015.4
20260830181726 98 294 3.0 4.0 0.00 0.00 0.00 36 1015.5
20260830181226 98 228 2.0 4.0 0.00 0.00 0.00 34 1015.9
20260830180724 96 223 4.0 5.0 0.00 0.00 0.00 37 1015.7
20260830180219 98 210 4.0 5.0 0.00 0.00 0.00 35 1015.7
20260830175714 98 261 2.0 3.0 0.00 0.00 0.00 36 1016.1
20260830175208 98 247 2.0 3.0 0.00 0.00 0.00 35 1015.8
20260830174703 97 210 4.0 4.0 0.00 0.00 0.00 36 1016.2
20260830174200 96 287 4.0 5.0 0.00 0.00 0.00 37 1015.9
20260830173659 96 242 3.0 4.0 0.00 0.00 0.00 35 1015.9
20260830173154 96 237 5.0 10.0 0.00 0.00 0.00 36 1016.3
20260830172651 94 190 8.0 11.0 0.00 0.00 0.00 38 1016.5
20260830172147 94 209 7.0 8.0 0.00 0.00 0.00 37 1016.4
20260830171648 95 131 11.0 14.0 0.00 0.00 0.00 37 1016.4
20260830171142 93 157 5.0 5.0 0.00 0.00 0.00 39 1016.5
20260830170637 94 237 2.0 5.0 0.00 0.00 0.00 39 1016.6
20260830170136 95 207 8.0 12.0 0.00 0.00 0.00 37 1016.6
20260830165631 94 239 7.0 8.0 0.00 0.00 0.00 38 1016.6
20260830165127 93 241 5.0 7.0 0.00 0.00 0.00 38 1016.9
20260830164623 93 206 7.0 8.0 0.00 0.00 0.00 38 1017.1
20260830164119 93 219 3.0 5.0 0.00 0.00 0.00 38 1016.8
20260830163616 92 218 5.0 5.0 0.00 0.00 0.00 39 1017.0
20260830163115 92 204 5.0 5.0 0.00 0.00 0.00 39 1017.1
20260830162610 93 209 12.0 16.0 0.00 0.00 0.00 38 1017.0
20260830162106 93 199 11.0 15.0 0.00 0.00 0.00 38 1017.0
20260830161606 93 279 4.0 4.0 0.00 0.00 0.00 38 1016.9
20260830161101 92 266 5.0 8.0 0.00 0.00 0.00 39 1016.9
20260830160557 91 236 8.0 10.0 0.00 0.00 0.00 40 1017.0
20260830160052 90 258 8.0 15.0 0.00 0.00 0.00 41 1017.0
20260830155548 91 237 5.0 5.0 0.00 0.00 0.00 41 1017.0
20260830155044 90 227 4.0 5.0 0.00 0.00 0.00 41 1017.0
20260830154538 91 230 4.0 5.0 0.00 0.00 0.00 41 1017.0
20260830154035 91 225 5.0 5.0 0.00 0.00 0.00 41 1017.1
20260830153531 91 178 13.0 15.0 0.00 0.00 0.00 41 1017.2
20260830153031 89 206 3.0 5.0 0.00 0.00 0.00 43 1016.8
20260830152526 90 218 2.0 4.0 0.00 0.00 0.00 43 1016.9
20260830152025 88 207 1.0 3.0 0.00 0.00 0.00 44 1016.9
20260830151524 88 207 6.0 10.0 0.00 0.00 0.00 45 1016.9
20260830151020 88 194 5.0 10.0 0.00 0.00 0.00 46 1016.8
20260830150519 87 143 4.0 4.0 0.00 0.00 0.00 45 1017.0
20260830150014 87 166 6.0 8.0 0.00 0.00 0.00 47 1017.0
20260830145513 86 208 6.0 8.0 0.00 0.00 0.00 48 1017.0
20260830145009 86 176 7.0 11.0 0.00 0.00 0.00 48 1017.0
20260830144505 85 220 4.0 5.0 0.00 0.00 0.00 50 1016.9
20260830144000 84 199 3.0 5.0 0.00 0.00 0.00 51 1017.0
20260830143456 84 189 3.0 4.0 0.00 0.00 0.00 52 1016.9
20260830142954 83 204 6.0 7.0 0.00 0.00 0.00 53 1017.0
20260830142449 82 211 3.0 4.0 0.00 0.00 0.00 54 1017.1
20260830141944 82 155 0.0 0.0 0.00 0.00 0.00 57 1017.3
20260830141439 82 163 3.0 4.0 0.00 0.00 0.00 55 1017.2
20260830140934 81 196 2.0 3.0 0.00 0.00 0.00 57 1017.2
20260830140430 81 231 1.0 1.0 0.00 0.00 0.00 57 1017.2
20260830135928 80 242 1.0 1.0 0.00 0.00 0.00 59 1017.3
20260830135424 80 224 1.0 1.0 0.00 0.00 0.00 59 1017.3
20260830134920 80 198 2.0 3.0 0.00 0.00 0.00 59 1017.3
20260830134415 79 204 0.0 1.0 0.00 0.00 0.00 59 1017.2
20260830133911 78 203 0.0 1.0 0.00 0.00 0.00 61 1017.3
20260830133406 77 208 2.0 3.0 0.00 0.00 0.00 62 1017.1
20260830132901 76 194 1.0 1.0 0.00 0.00 0.00 64 1017.1
20260830132357 76 185 2.0 3.0 0.00 0.00 0.00 64 1017.0
20260830131856 76 191 1.0 1.0 0.00 0.00 0.00 64 1017.0
20260830131356 75 219 0.0 0.0 0.00 0.00 0.00 66 1017.2
20260830130851 75 209 0.0 1.0 0.00 0.00 0.00 66 1017.0
20260830130347 74 179 0.0 1.0 0.00 0.00 0.00 67 1016.9
20260830125845 72 245 0.0 0.0 0.00 0.00 0.00 71 1017.0
20260830125341 72 274 0.0 0.0 0.00 0.00 0.00 73 1017.0
20260830124839 71 257 0.0 0.0 0.00 0.00 0.00 75 1016.9
20260830124333 69 249 0.0 0.0 0.00 0.00 0.00 76 1017.1
20260830123830 68 263 0.0 0.0 0.00 0.00 0.00 77 1016.9
20260830123327 67 275 0.0 0.0 0.00 0.00 0.00 81 1016.8
20260830122824 67 274 0.0 0.0 0.00 0.00 0.00 81 1016.8
20260830122324 68 284 0.0 0.0 0.00 0.00 0.00 80 1016.7
20260830121820 68 294 0.0 1.0 0.00 0.00 0.00 79 1016.7
20260830121319 68 286 0.0 1.0 0.00 0.00 0.00 78 1016.5
20260830120814 68 294 0.0 0.0 0.00 0.00 0.00 77 1016.7
20260830120310 68 289 0.0 0.0 0.00 0.00 0.00 77 1016.6
20260830115806 68 303 0.0 0.0 0.00 0.00 0.00 77 1016.8
20260830115305 68 269 0.0 0.0 0.00 0.00 0.00 75 1016.7
20260830114758 68 260 0.0 0.0 0.00 0.00 0.00 74 1016.6
20260830114253 68 259 0.0 0.0 0.00 0.00 0.00 76 1016.4
20260830113748 69 213 1.0 1.0 0.00 0.00 0.00 75 1016.6
20260830113243 69 223 0.0 0.0 0.00 0.00 0.00 73 1016.6
20260830112739 70 276 0.0 0.0 0.00 0.00 0.00 71 1016.5
20260830112236 71 289 0.0 0.0 0.00 0.00 0.00 72 1016.5
20260830111731 71 272 0.0 0.0 0.00 0.00 0.00 67 1016.4
20260830111226 70 228 0.0 0.0 0.00 0.00 0.00 69 1016.4
20260830110726 71 241 0.0 1.0 0.00 0.00 0.00 68 1016.4
20260830110223 72 274 0.0 0.0 0.00 0.00 0.00 66 1016.4
20260830105721 72 16 0.0 1.0 0.00 0.00 0.00 66 1016.2
20260830105218 72 256 0.0 0.0 0.00 0.00 0.00 65 1016.3
20260830104714 72 226 0.0 0.0 0.00 0.00 0.00 65 1016.2
20260830104211 73 155 0.0 0.0 0.00 0.00 0.00 64 1016.3
20260830103709 73 202 0.0 0.0 0.00 0.00 0.00 63 1016.4
20260830103206 73 262 0.0 1.0 0.00 0.00 0.00 63 1016.3
20260830102703 73 191 2.0 3.0 0.00 0.00 0.00 64 1016.2
20260830102200 73 234 1.0 1.0 0.00 0.00 0.00 63 1016.4
20260830101655 73 247 0.0 1.0 0.00 0.00 0.00 63 1016.3
20260830101151 73 216 0.0 1.0 0.00 0.00 0.00 64 1016.1
20260830100650 73 233 1.0 3.0 0.00 0.00 0.00 63 1016.1
20260830100144 73 174 1.0 3.0 0.00 0.00 0.00 63 1016.1
20260830095643 73 204 2.0 3.0 0.00 0.00 0.00 64 1016.1
20260830095141 73 84 1.0 1.0 0.00 0.00 0.00 64 1016.3
20260830094636 73 115 2.0 3.0 0.00 0.00 0.00 63 1015.9
20260830094131 73 210 2.0 3.0 0.00 0.00 0.00 63 1016.1
20260830093626 73 195 1.0 1.0 0.00 0.00 0.00 63 1016.1
20260830093123 73 197 3.0 4.0 0.00 0.00 0.00 63 1016.1
20260830092622 73 247 0.0 0.0 0.00 0.00 0.00 65 1016.2
20260830092120 73 238 2.0 3.0 0.00 0.00 0.00 64 1015.9
20260830091615 73 132 2.0 3.0 0.00 0.00 0.00 64 1016.2
20260830091114 73 176 0.0 1.0 0.00 0.00 0.00 63 1016.1
20260830090610 73 189 2.0 3.0 0.00 0.00 0.00 63 1016.2
20260830090105 73 269 0.0 0.0 0.00 0.00 0.00 63 1016.2
20260830085604 73 275 0.0 0.0 0.00 0.00 0.00 63 1016.1
20260830085100 74 223 1.0 1.0 0.00 0.00 0.00 62 1016.1
20260830084556 74 231 0.0 0.0 0.00 0.00 0.00 63 1015.7
20260830084055 74 228 2.0 3.0 0.00 0.00 0.00 63 1015.7
20260830083551 74 135 1.0 3.0 0.00 0.00 0.00 64 1015.8
20260830083051 74 219 1.0 1.0 0.00 0.00 0.00 63 1015.9
20260830082546 74 234 0.0 0.0 0.00 0.00 0.00 62 1015.9
20260830082041 74 234 0.0 1.0 0.00 0.00 0.00 63 1015.9
20260830081537 74 252 1.0 3.0 0.00 0.00 0.00 63 1015.5
20260830081036 74 200 2.0 4.0 0.00 0.00 0.00 62 1015.8
20260830080531 74 190 2.0 3.0 0.00 0.00 0.00 62 1015.9
20260830080026 74 245 0.0 1.0 0.00 0.00 0.00 62 1015.8
20260830075521 74 221 1.0 3.0 0.00 0.00 0.00 63 1015.9
20260830075016 74 166 2.0 3.0 0.00 0.00 0.00 62 1015.8
20260830074512 75 96 2.0 4.0 0.00 0.00 0.00 62 1015.8
20260830074008 75 230 1.0 1.0 0.00 0.00 0.00 61 1015.6
20260830073504 74 206 1.0 1.0 0.00 0.00 0.00 62 1015.7
20260830072958 75 215 0.0 1.0 0.00 0.00 0.00 63 1015.6
20260830072454 75 95 2.0 3.0 0.00 0.00 0.00 61 1015.7
20260830071953 75 229 0.0 1.0 0.00 0.00 0.00 61 1015.9
20260830071449 75 82 1.0 1.0 0.00 0.00 0.00 61 1016.2
20260830070947 75 232 0.0 1.0 0.00 0.00 0.00 61 1016.1
20260830070442 75 202 2.0 3.0 0.00 0.00 0.00 61 1016.3
20260830065942 75 236 0.0 1.0 0.00 0.00 0.00 62 1015.9
20260830065441 75 238 1.0 3.0 0.00 0.00 0.00 62 1016.2
20260830064939 75 229 1.0 1.0 0.00 0.00 0.00 63 1016.1
20260830064435 75 176 1.0 1.0 0.00 0.00 0.00 63 1016.2
20260830063935 75 246 1.0 1.0 0.00 0.00 0.00 63 1016.2
20260830063434 75 186 2.0 3.0 0.00 0.00 0.00 62 1016.2
20260830062934 75 149 1.0 1.0 0.00 0.00 0.00 63 1016.2
20260830062433 75 211 1.0 1.0 0.00 0.00 0.00 63 1016.1
20260830061928 75 174 1.0 1.0 0.00 0.00 0.00 64 1016.3
20260830061423 75 182 2.0 3.0 0.00 0.00 0.00 63 1016.3
20260830060919 75 202 2.0 3.0 0.00 0.00 0.00 64 1016.3
20260830060416 75 257 0.0 0.0 0.00 0.00 0.00 65 1016.5
20260830055911 75 200 2.0 3.0 0.00 0.00 0.00 63 1016.6
20260830055407 75 235 1.0 1.0 0.00 0.00 0.00 63 1016.4
20260830054901 75 224 0.0 1.0 0.00 0.00 0.00 64 1016.2
20260830054358 75 204 1.0 1.0 0.00 0.00 0.00 64 1016.4
20260830053853 75 190 0.0 1.0 0.00 0.00 0.00 64 1016.3
20260830053348 75 237 0.0 0.0 0.00 0.00 0.00 64 1016.3
20260830052847 75 217 0.0 1.0 0.00 0.00 0.00 65 1016.3
20260830052343 75 212 1.0 1.0 0.00 0.00 0.00 64 1016.2
20260830051838 75 259 1.0 1.0 0.00 0.00 0.00 65 1016.2
20260830051333 75 203 2.0 3.0 0.00 0.00 0.00 66 1016.3
20260830050832 75 247 0.0 1.0 0.00 0.00 0.00 66 1016.2
20260830050328 75 211 0.0 0.0 0.00 0.00 0.00 66 1016.2
20260830045826 74 278 0.0 0.0 0.00 0.00 0.00 68 1016.2
20260830045322 73 230 0.0 0.0 0.00 0.00 0.00 69 1016.1
20260830044821 73 254 0.0 0.0 0.00 0.00 0.00 70 1016.2
20260830044317 73 254 0.0 0.0 0.00 0.00 0.00 71 1016.2
20260830043812 72 262 0.0 0.0 0.00 0.00 0.00 72 1016.3
20260830043311 73 260 0.0 0.0 0.00 0.00 0.00 73 1016.4
20260830042809 73 248 0.0 0.0 0.00 0.00 0.00 71 1016.2
20260830042306 74 255 0.0 0.0 0.00 0.00 0.00 68 1016.2
20260830041803 74 220 0.0 0.0 0.00 0.00 0.00 69 1015.9
20260830041256 74 269 0.0 0.0 0.00 0.00 0.00 69 1016.2
20260830040752 74 239 0.0 0.0 0.00 0.00 0.00 70 1016.1
20260830040248 74 270 0.0 0.0 0.00 0.00 0.00 70 1016.1
20260830035746 75 247 0.0 0.0 0.00 0.00 0.00 68 1016.2
20260830035241 74 239 1.0 1.0 0.00 0.00 0.00 66 1016.1
20260830034736 73 227 0.0 0.0 0.00 0.00 0.00 68 1016.2
20260830034236 74 210 0.0 1.0 0.00 0.00 0.00 71 1016.2
20260830033732 74 287 0.0 0.0 0.00 0.00 0.00 69 1016.3
20260830033231 75 227 0.0 0.0 0.00 0.00 0.00 67 1015.9
20260830032726 73 233 0.0 1.0 0.00 0.00 0.00 67 1016.1
20260830032221 73 236 1.0 1.0 0.00 0.00 0.00 69 1016.1
20260830031716 73 226 0.0 0.0 0.00 0.00 0.00 71 1015.9
20260830031212 73 165 1.0 1.0 0.00 0.00 0.00 69 1015.9
20260830030707 72 224 0.0 0.0 0.00 0.00 0.00 71 1015.9
20260830030203 72 215 0.0 0.0 0.00 0.00 0.00 73 1015.8
20260830025702 73 252 0.0 0.0 0.00 0.00 0.00 72 1015.7
20260830025201 73 247 0.0 0.0 0.00 0.00 0.00 72 1015.7
20260830024656 73 273 0.0 0.0 0.00 0.00 0.00 72 1015.7
20260830024156 73 273 0.0 0.0 0.00 0.00 0.00 72 1015.8
20260830023654 73 273 0.0 0.0 0.00 0.00 0.00 71 1015.5
20260830023149 73 273 0.0 0.0 0.00 0.00 0.00 72 1015.4